Total_Precipitation_Accumulation
0.05 0.04 0.04 0.04 0.04 0.04 0.04 0.04 0.05 0.05 0.05 0.05 0.03 0.03 0.03 0.04 0.03 0.03 0.03 0.03 0.03 0.03 0.03 0.02 0.03 0.02 0.01 0.01 0.00 0.00 0.00 0.00 0.00 0.00 0.00 0.00 0.00 0.00 0.00 0.00 0.00 0.00 0.00 0.00 0.00 0.00 0.01 0.00 0.00 0.00 0.01 0.06 0.49 0.64 0.78 0.99 0.67 1.55 2.69 2.83 3.09 3.53 3.97 2.82 3.09 3.48 1.63 1.76 0.90 1.33 1.55 2.06 1.70 1.44 1.21 0.74 0.63 0.85 0.39 0.36 0.29 0.09 0.03 0.01 0.01 0.00 0.01 0.02
0.04 0.03 0.04 0.04 0.04 0.04 0.04 0.04 0.04 0.05 0.04 0.04 0.04 0.04 0.04 0.03 0.04 0.02 0.02 0.02 0.03 0.03 0.03 0.04 0.02 0.02 0.01 0.00 0.00 0.00 0.01 0.00 0.00 0.00 0.00 0.00 0.00 0.00 0.00 0.00 0.00 0.00 0.00 0.00 0.00 0.00 0.00 0.00 0.00 0.00 0.01 0.14 0.26 0.62 0.26 1.69 0.63 1.60 2.53 3.47 3.53 1.92 2.32 2.17 2.40 2.01 1.62 1.48 0.82 0.72 0.79 1.29 1.42 1.34 0.99 1.14 0.63 0.51 0.26 0.28 0.17 0.07 0.03 0.03 0.00 0.00 0.01 0.02
0.04 0.04 0.05 0.03 0.04 0.04 0.04 0.04 0.03 0.03 0.04 0.03 0.03 0.04 0.03 0.04 0.03 0.03 0.02 0.03 0.03 0.03 0.04 0.03 0.03 0.01 0.00 0.01 0.00 0.00 0.01 0.00 0.00 0.00 0.00 0.00 0.00 0.00 0.00 0.00 0.00 0.00 0.00 0.00 0.00 0.00 0.00 0.00 0.00 0.00 0.00 0.14 0.45 0.65 0.43 1.87 0.80 1.72 1.48 2.81 2.58 1.97 1.69 2.27 1.87 1.73 1.08 0.57 0.74 0.88 0.54 1.00 0.85 1.24 0.34 1.32 0.39 0.34 0.49 0.11 0.07 0.06 0.03 0.02 0.01 0.00 0.02 0.02
0.03 0.05 0.04 0.03 0.03 0.03 0.04 0.03 0.04 0.03 0.03 0.03 0.02 0.02 0.03 0.03 0.02 0.02 0.03 0.02 0.02 0.03 0.03 0.03 0.02 0.01 0.01 0.00 0.00 0.00 0.00 0.00 0.00 0.00 0.00 0.00 0.00 0.00 0.00 0.00 0.00 0.00 0.00 0.00 0.00 0.00 0.00 0.00 0.00 0.00 0.00 0.02 0.31 0.21 1.11 1.08 0.92 1.04 1.71 2.48 2.78 2.08 1.66 1.29 1.55 1.29 0.93 0.80 0.84 1.02 0.54 0.83 0.74 1.00 0.68 0.86 1.02 1.16 0.67 0.19 0.12 0.01 0.01 0.01 0.00 0.01 0.00 0.01
0.03 0.04 0.04 0.03 0.02 0.03 0.03 0.04 0.04 0.04 0.03 0.03 0.02 0.03 0.02 0.02 0.03 0.02 0.01 0.02 0.02 0.01 0.02 0.02 0.01 0.01 0.00 0.00 0.00 0.00 0.00 0.00 0.00 0.00 0.00 0.00 0.00 0.00 0.00 0.00 0.00 0.00 0.00 0.00 0.00 0.00 0.00 0.00 0.00 0.00 0.00 0.10 0.38 0.15 0.73 0.54 0.45 1.11 1.45 1.06 1.77 2.56 2.22 0.97 1.31 1.22 1.03 0.67 0.73 0.50 0.67 0.67 0.78 1.26 0.60 0.89 1.92 1.32 0.93 0.06 0.08 0.02 0.01 0.00 0.00 0.00 0.00 0.01
0.03 0.04 0.03 0.02 0.02 0.02 0.03 0.03 0.04 0.04 0.03 0.03 0.02 0.02 0.02 0.02 0.01 0.01 0.01 0.02 0.01 0.01 0.01 0.01 0.01 0.00 0.00 0.00 0.00 0.00 0.00 0.00 0.00 0.00 0.00 0.00 0.00 0.00 0.00 0.00 0.00 0.00 0.00 0.00 0.00 0.00 0.00 0.00 0.00 0.00 0.03 0.07 0.34 0.51 0.79 0.52 0.56 2.37 1.26 1.33 1.64 1.97 2.23 1.81 1.16 2.17 1.11 1.62 1.53 0.95 0.86 0.67 0.79 1.17 1.05 0.66 1.12 1.20 0.85 0.17 0.02 0.00 0.00 0.00 0.00 0.00 0.00 0.00
0.03 0.03 0.02 0.02 0.02 0.03 0.03 0.04 0.04 0.03 0.03 0.03 0.03 0.02 0.02 0.02 0.01 0.01 0.01 0.01 0.01 0.01 0.01 0.01 0.01 0.01 0.00 0.00 0.00 0.00 0.00 0.00 0.00 0.00 0.00 0.00 0.00 0.00 0.00 0.00 0.00 0.00 0.00 0.00 0.00 0.00 0.00 0.00 0.00 0.01 0.02 0.04 0.07 0.13 0.46 0.90 0.35 0.68 1.01 0.89 1.72 2.11 2.40 1.68 1.38 1.85 1.58 1.61 2.15 2.32 0.57 1.11 0.84 1.18 0.93 0.85 0.47 1.01 0.70 0.20 0.11 0.02 0.00 0.00 0.00 0.00 0.00 0.00
0.04 0.03 0.02 0.02 0.02 0.03 0.04 0.03 0.03 0.03 0.02 0.02 0.02 0.02 0.02 0.01 0.02 0.01 0.01 0.01 0.01 0.01 0.01 0.01 0.01 0.00 0.00 0.00 0.00 0.00 0.00 0.00 0.00 0.00 0.00 0.00 0.00 0.00 0.00 0.00 0.00 0.00 0.00 0.00 0.00 0.00 0.00 0.00 0.00 0.00 0.02 0.13 0.28 0.09 0.21 0.30 0.21 1.15 1.67 1.02 2.19 1.92 2.56 2.54 2.36 3.12 2.28 2.75 2.35 1.33 1.21 1.53 1.28 0.92 0.58 1.08 0.49 0.24 0.25 0.15 0.18 0.04 0.00 0.00 0.00 0.00 0.01 0.00
0.03 0.02 0.02 0.01 0.02 0.02 0.03 0.02 0.02 0.02 0.02 0.02 0.02 0.02 0.02 0.02 0.02 0.01 0.01 0.01 0.01 0.01 0.01 0.01 0.00 0.00 0.01 0.00 0.00 0.00 0.00 0.00 0.00 0.00 0.00 0.00 0.00 0.00 0.00 0.00 0.00 0.00 0.00 0.00 0.00 0.00 0.00 0.00 0.00 0.00 0.08 0.06 0.03 0.09 0.07 0.69 1.29 0.32 0.58 0.98 1.63 1.81 1.78 2.05 2.06 3.27 1.84 2.04 2.14 1.44 1.03 1.67 1.53 0.50 1.07 0.77 0.53 0.57 0.37 0.21 0.05 0.01 0.00 0.00 0.00 0.00 0.00 0.00
0.02 0.02 0.01 0.01 0.01 0.02 0.01 0.02 0.02 0.03 0.02 0.02 0.02 0.02 0.02 0.01 0.01 0.01 0.01 0.01 0.01 0.01 0.01 0.00 0.00 0.00 0.00 0.00 0.00 0.00 0.00 0.00 0.00 0.00 0.00 0.00 0.00 0.00 0.00 0.00 0.00 0.00 0.00 0.00 0.00 0.00 0.00 0.00 0.00 0.00 0.00 0.02 0.02 0.24 0.00 0.10 0.66 0.18 0.47 0.74 1.21 1.10 2.25 2.53 2.12 2.89 2.43 2.73 2.10 2.20 1.55 1.98 1.17 1.26 1.40 0.70 0.47 0.20 0.06 0.04 0.07 0.01 0.00 0.00 0.00 0.01 0.00 0.00
0.02 0.01 0.01 0.01 0.01 0.01 0.02 0.02 0.02 0.03 0.02 0.01 0.01 0.02 0.02 0.02 0.01 0.01 0.01 0.01 0.00 0.00 0.01 0.01 0.00 0.00 0.00 0.00 0.00 0.00 0.00 0.00 0.00 0.00 0.00 0.00 0.00 0.00 0.00 0.00 0.00 0.00 0.00 0.00 0.00 0.00 0.00 0.00 0.00 0.00 0.00 0.05 0.00 0.14 0.09 0.15 0.06 0.40 0.45 0.60 1.77 1.83 2.98 2.83 4.26 2.94 2.52 2.30 2.79 3.87 2.20 1.78 1.07 1.25 1.64 0.86 0.40 0.24 0.30 0.10 0.21 0.09 0.01 0.00 0.00 0.00 0.00 0.01
0.01 0.01 0.00 0.00 0.01 0.01 0.01 0.02 0.02 0.01 0.01 0.01 0.02 0.02 0.02 0.01 0.01 0.01 0.01 0.00 0.00 0.00 0.01 0.01 0.00 0.00 0.00 0.00 0.00 0.00 0.00 0.00 0.00 0.00 0.00 0.00 0.00 0.00 0.00 0.00 0.00 0.00 0.00 0.00 0.00 0.00 0.00 0.00 0.00 0.00 0.02 0.00 0.09 0.07 0.15 0.01 0.28 0.71 0.40 1.20 1.70 1.91 3.94 3.34 3.23 3.30 2.68 2.60 2.64 3.77 3.21 2.29 1.58 1.53 0.94 0.28 0.46 0.41 0.40 0.27 0.14 0.07 0.02 0.00 0.01 0.00 0.00 0.00
0.01 0.01 0.00 0.00 0.00 0.01 0.01 0.01 0.01 0.01 0.01 0.02 0.02 0.02 0.02 0.02 0.01 0.01 0.00 0.00 0.00 0.00 0.02 0.00 0.00 0.00 0.00 0.00 0.00 0.00 0.00 0.00 0.00 0.00 0.00 0.00 0.00 0.00 0.00 0.00 0.00 0.00 0.00 0.00 0.00 0.00 0.00 0.00 0.00 0.00 0.00 0.00 0.01 0.23 0.32 0.03 0.94 0.46 1.31 0.72 0.75 1.43 2.57 4.22 3.71 3.21 3.04 3.02 2.59 3.38 3.23 2.50 1.87 1.27 0.76 1.17 0.43 0.25 0.42 0.53 0.26 0.16 0.01 0.00 0.01 0.00 0.01 0.01
0.01 0.00 0.00 0.01 0.00 0.01 0.01 0.01 0.01 0.02 0.01 0.01 0.01 0.02 0.02 0.01 0.01 0.00 0.00 0.00 0.00 0.00 0.00 0.00 0.00 0.00 0.00 0.00 0.00 0.00 0.00 0.00 0.00 0.00 0.00 0.00 0.00 0.00 0.00 0.00 0.00 0.00 0.00 0.00 0.00 0.00 0.00 0.00 0.00 0.00 0.00 0.00 0.01 0.00 0.03 0.02 0.25 0.94 0.93 0.82 1.77 1.10 2.16 2.14 2.77 1.97 2.53 2.46 1.61 1.63 3.09 2.39 2.74 1.39 1.05 0.86 0.70 0.32 0.21 0.20 0.12 0.11 0.02 0.06 0.02 0.00 0.03 0.01
0.01 0.00 0.01 0.01 0.01 0.01 0.01 0.01 0.01 0.01 0.02 0.01 0.01 0.02 0.01 0.00 0.00 0.00 0.00 0.00 0.00 0.00 0.00 0.01 0.00 0.00 0.00 0.00 0.00 0.00 0.00 0.00 0.00 0.00 0.00 0.00 0.00 0.00 0.00 0.00 0.00 0.00 0.00 0.00 0.00 0.00 0.00 0.00 0.00 0.00 0.00 0.00 0.00 0.00 0.01 0.05 0.48 0.88 0.57 0.95 0.87 0.85 2.20 2.94 2.00 1.68 2.24 1.75 1.69 1.38 3.22 2.90 2.16 2.21 1.12 0.84 1.07 0.67 0.22 0.16 0.08 0.06 0.02 0.03 0.04 0.03 0.02 0.03
0.00 0.00 0.00 0.00 0.01 0.01 0.00 0.01 0.01 0.01 0.01 0.01 0.01 0.01 0.00 0.00 0.00 0.00 0.00 0.00 0.00 0.00 0.01 0.00 0.00 0.00 0.00 0.00 0.00 0.00 0.00 0.00 0.00 0.00 0.00 0.00 0.00 0.00 0.00 0.00 0.00 0.00 0.00 0.00 0.00 0.00 0.00 0.00 0.00 0.00 0.00 0.00 0.00 0.04 0.11 0.32 0.46 0.62 0.45 0.93 0.78 1.12 1.28 1.53 2.69 1.91 1.96 1.60 2.11 1.45 2.89 1.98 2.60 1.17 0.85 0.86 1.08 0.77 0.62 0.21 0.10 0.36 0.04 0.03 0.05 0.03 0.03 0.06
0.00 0.00 0.00 0.01 0.01 0.01 0.01 0.00 0.01 0.01 0.01 0.01 0.01 0.00 0.00 0.00 0.00 0.00 0.00 0.00 0.01 0.00 0.00 0.00 0.00 0.00 0.00 0.00 0.00 0.00 0.00 0.00 0.00 0.00 0.00 0.00 0.00 0.00 0.00 0.00 0.00 0.00 0.00 0.00 0.00 0.00 0.00 0.00 0.00 0.00 0.00 0.00 0.01 0.01 0.08 0.51 0.37 0.63 0.30 0.97 0.76 0.84 1.18 1.40 1.47 2.05 1.31 1.02 1.71 1.30 1.84 1.87 1.08 0.78 0.72 0.58 1.02 0.54 0.74 0.68 0.28 0.49 0.12 0.03 0.06 0.02 0.05 0.01
0.00 0.00 0.00 0.00 0.01 0.01 0.01 0.00 0.00 0.01 0.01 0.00 0.00 0.00 0.00 0.00 0.00 0.00 0.00 0.00 0.00 0.00 0.00 0.00 0.00 0.00 0.00 0.00 0.00 0.00 0.00 0.00 0.00 0.00 0.00 0.00 0.00 0.00 0.00 0.00 0.00 0.00 0.00 0.00 0.00 0.00 0.00 0.00 0.00 0.00 0.00 0.00 0.00 0.02 0.12 0.50 0.34 0.62 0.69 0.61 0.62 0.49 0.38 1.13 1.11 1.45 1.10 1.20 1.33 1.48 1.89 1.72 1.59 1.16 0.80 0.41 0.56 0.56 0.46 0.51 0.32 0.18 0.37 0.10 0.05 0.02 0.05 0.02
0.00 0.00 0.00 0.00 0.01 0.01 0.00 0.00 0.00 0.01 0.01 0.00 0.00 0.00 0.00 0.00 0.00 0.00 0.00 0.00 0.00 0.00 0.00 0.00 0.00 0.00 0.00 0.00 0.00 0.00 0.00 0.00 0.00 0.00 0.00 0.00 0.00 0.00 0.00 0.00 0.00 0.00 0.00 0.00 0.00 0.00 0.00 0.00 0.00 0.01 0.03 0.01 0.01 0.01 0.16 0.48 0.11 0.25 0.53 0.58 0.65 0.79 0.94 1.12 1.09 0.96 0.55 0.82 1.73 1.61 1.49 1.76 1.82 1.37 1.22 1.07 1.31 1.19 1.10 0.85 0.85 0.77 0.48 0.23 0.10 0.05 0.03 0.04
0.00 0.00 0.00 0.00 0.00 0.01 0.01 0.00 0.00 0.01 0.02 0.00 0.00 0.00 0.00 0.00 0.00 0.00 0.00 0.00 0.00 0.00 0.00 0.00 0.00 0.00 0.00 0.00 0.00 0.00 0.00 0.00 0.00 0.00 0.00 0.00 0.00 0.00 0.00 0.00 0.00 0.00 0.00 0.00 0.00 0.00 0.00 0.00 0.00 0.00 0.01 0.01 0.01 0.00 0.06 0.07 0.04 0.13 0.44 0.63 0.78 0.57 0.75 0.95 0.75 1.28 1.19 1.81 0.95 1.26 1.42 1.74 1.24 1.34 0.70 0.49 0.85 0.79 1.04 0.79 0.66 0.65 0.42 0.26 0.15 0.08 0.07 0.05
0.00 0.00 0.00 0.00 0.00 0.00 0.00 0.00 0.00 0.01 0.03 0.00 0.00 0.00 0.00 0.00 0.00 0.00 0.00 0.00 0.00 0.00 0.00 0.00 0.00 0.00 0.00 0.00 0.00 0.00 0.00 0.00 0.00 0.00 0.00 0.00 0.00 0.00 0.00 0.00 0.00 0.00 0.00 0.00 0.00 0.00 0.00 0.00 0.00 0.01 0.01 0.00 0.00 0.00 0.01 0.02 0.04 0.25 0.42 0.47 0.49 0.66 1.03 1.51 1.01 0.93 1.70 1.42 1.91 1.73 1.70 1.94 1.71 1.94 1.44 0.92 0.60 0.50 0.68 0.75 0.46 0.30 0.58 0.39 0.19 0.15 0.04 0.04
0.00 0.00 0.00 0.00 0.00 0.00 0.00 0.00 0.00 0.01 0.02 0.00 0.00 0.00 0.00 0.00 0.00 0.00 0.00 0.00 0.00 0.00 0.00 0.00 0.00 0.00 0.00 0.00 0.00 0.00 0.00 0.00 0.00 0.00 0.00 0.00 0.00 0.00 0.00 0.00 0.00 0.00 0.00 0.00 0.00 0.00 0.00 0.00 0.00 0.00 0.00 0.00 0.00 0.00 0.01 0.01 0.19 0.10 0.42 0.54 0.60 0.73 0.82 0.71 0.82 0.58 1.96 2.01 2.16 1.98 1.83 2.01 2.63 1.85 1.24 1.46 0.40 0.31 0.25 0.46 0.61 0.81 0.25 0.26 0.17 0.25 0.13 0.02
0.00 0.00 0.00 0.00 0.00 0.00 0.00 0.00 0.00 0.02 0.00 0.00 0.00 0.00 0.00 0.00 0.00 0.00 0.00 0.00 0.00 0.00 0.00 0.00 0.00 0.00 0.00 0.00 0.00 0.00 0.00 0.00 0.00 0.00 0.00 0.00 0.00 0.00 0.00 0.00 0.00 0.00 0.00 0.00 0.00 0.00 0.00 0.00 0.00 0.00 0.00 0.00 0.00 0.01 0.01 0.01 0.18 0.26 0.40 0.34 0.56 0.55 0.78 1.15 1.34 1.13 2.09 1.15 2.05 1.64 2.21 2.54 4.21 2.49 1.63 1.36 1.51 1.57 0.59 0.63 0.94 0.76 0.29 0.39 0.25 0.21 0.17 0.28
0.00 0.00 0.00 0.00 0.00 0.00 0.00 0.00 0.02 0.01 0.00 0.00 0.00 0.00 0.00 0.00 0.00 0.00 0.00 0.00 0.00 0.00 0.00 0.00 0.00 0.00 0.00 0.00 0.00 0.00 0.00 0.00 0.00 0.00 0.00 0.00 0.00 0.00 0.00 0.00 0.00 0.00 0.00 0.00 0.00 0.00 0.00 0.00 0.00 0.00 0.00 0.00 0.01 0.00 0.06 0.02 0.17 0.05 0.08 0.31 0.23 0.17 0.33 0.43 1.22 1.36 1.48 0.92 1.10 1.67 2.15 3.05 2.62 2.36 2.05 2.29 1.85 1.51 1.70 0.67 0.54 0.94 0.62 0.51 0.14 0.36 0.22 0.14
0.00 0.01 0.01 0.00 0.00 0.00 0.00 0.01 0.00 0.00 0.00 0.00 0.00 0.00 0.00 0.00 0.00 0.00 0.00 0.00 0.00 0.00 0.00 0.00 0.00 0.00 0.00 0.00 0.00 0.00 0.00 0.00 0.00 0.00 0.00 0.00 0.00 0.00 0.00 0.00 0.00 0.00 0.00 0.00 0.00 0.00 0.00 0.00 0.00 0.00 0.00 0.00 0.00 0.00 0.00 0.03 0.16 0.14 0.19 0.09 0.01 0.01 0.03 0.10 0.26 0.79 1.10 0.98 0.89 0.79 1.04 1.82 1.45 1.61 1.48 2.13 1.66 1.72 0.77 0.46 0.40 0.52 0.58 0.81 0.44 0.21 0.25 0.28
0.00 0.01 0.01 0.01 0.01 0.00 0.00 0.00 0.00 0.00 0.00 0.00 0.00 0.00 0.00 0.00 0.00 0.00 0.00 0.00 0.00 0.00 0.00 0.00 0.00 0.00 0.00 0.00 0.00 0.00 0.00 0.00 0.00 0.00 0.00 0.00 0.00 0.00 0.00 0.00 0.00 0.00 0.00 0.00 0.00 0.00 0.00 0.00 0.00 0.00 0.00 0.00 0.00 0.00 0.00 0.00 0.05 0.24 0.03 0.00 0.00 0.01 0.09 0.11 0.22 0.38 0.88 1.18 1.53 0.44 1.07 1.87 1.37 1.86 1.50 1.45 1.28 1.12 1.52 0.67 0.48 0.34 0.27 0.56 0.68 0.42 0.28 0.18
0.00 0.00 0.01 0.01 0.01 0.01 0.00 0.00 0.00 0.00 0.00 0.00 0.00 0.00 0.00 0.00 0.00 0.00 0.00 0.00 0.00 0.00 0.00 0.00 0.00 0.00 0.00 0.00 0.00 0.00 0.00 0.02 0.00 0.00 0.00 0.00 0.00 0.00 0.00 0.00 0.00 0.00 0.00 0.00 0.00 0.00 0.00 0.00 0.00 0.00 0.00 0.00 0.00 0.00 0.00 0.00 0.01 0.10 0.12 0.00 0.01 0.00 0.07 0.05 0.14 0.15 1.00 0.71 0.74 0.36 0.26 1.09 1.43 1.52 0.73 0.87 1.10 1.12 1.02 1.01 0.81 0.58 0.15 0.22 0.47 0.27 0.32 0.41
0.00 0.01 0.01 0.01 0.01 0.02 0.00 0.00 0.00 0.00 0.00 0.00 0.00 0.00 0.00 0.00 0.00 0.00 0.00 0.02 0.00 0.00 0.00 0.00 0.00 0.00 0.00 0.00 0.00 0.00 0.01 0.00 0.00 0.00 0.00 0.00 0.00 0.00 0.00 0.00 0.00 0.00 0.00 0.00 0.00 0.00 0.00 0.00 0.00 0.00 0.00 0.00 0.00 0.00 0.04 0.01 0.02 0.01 0.31 0.00 0.05 0.09 0.10 0.20 0.39 0.38 0.51 0.23 0.67 0.33 0.18 0.53 0.59 0.90 0.73 0.61 1.38 1.07 0.97 1.01 0.90 0.65 0.26 0.20 0.32 0.26 0.20 0.40
0.01 0.00 0.01 0.01 0.01 0.00 0.00 0.00 0.00 0.00 0.00 0.00 0.00 0.00 0.00 0.00 0.00 0.00 0.06 0.04 0.00 0.00 0.00 0.00 0.00 0.00 0.00 0.00 0.00 0.00 0.00 0.00 0.00 0.00 0.00 0.00 0.00 0.00 0.00 0.00 0.00 0.00 0.00 0.00 0.00 0.00 0.00 0.00 0.00 0.00 0.00 0.00 0.00 0.00 0.00 0.03 0.02 0.00 0.01 0.02 0.03 0.01 0.01 0.14 0.24 0.14 0.65 0.15 0.74 0.24 0.22 0.59 1.01 0.82 0.97 1.11 0.61 0.53 0.77 0.65 0.54 0.55 0.54 0.27 0.22 0.10 0.27 0.28
0.00 0.00 0.01 0.01 0.01 0.00 0.00 0.00 0.00 0.00 0.00 0.00 0.00 0.00 0.00 0.00 0.00 0.02 0.03 0.05 0.00 0.01 0.00 0.00 0.00 0.00 0.00 0.00 0.00 0.00 0.00 0.00 0.00 0.00 0.00 0.00 0.00 0.00 0.00 0.00 0.00 0.00 0.00 0.00 0.00 0.00 0.00 0.00 0.00 0.00 0.00 0.00 0.00 0.00 0.00 0.01 0.16 0.00 0.01 0.00 0.00 0.02 0.31 0.27 0.65 0.46 0.55 0.24 0.49 0.44 0.32 0.26 1.45 1.14 0.69 0.77 0.44 0.57 0.37 0.41 0.55 0.35 0.79 0.88 0.24 0.20 0.29 0.23
0.00 0.00 0.00 0.01 0.01 0.00 0.00 0.00 0.00 0.00 0.00 0.00 0.00 0.00 0.00 0.00 0.04 0.02 0.07 0.00 0.00 0.00 0.00 0.00 0.00 0.00 0.00 0.00 0.00 0.00 0.00 0.00 0.00 0.00 0.00 0.00 0.00 0.00 0.00 0.00 0.00 0.00 0.00 0.00 0.00 0.00 0.00 0.00 0.00 0.00 0.00 0.00 0.00 0.03 0.00 0.00 0.00 0.04 0.06 0.08 0.11 0.21 0.17 0.40 0.80 0.56 0.32 0.31 0.30 0.39 0.50 0.33 0.54 1.15 0.84 0.30 0.21 0.27 0.38 0.40 0.32 0.29 0.29 0.31 0.57 0.23 0.15 0.20
0.00 0.00 0.00 0.01 0.00 0.01 0.00 0.00 0.00 0.00 0.00 0.00 0.00 0.00 0.00 0.04 0.04 0.16 0.12 0.00 0.02 0.00 0.00 0.00 0.00 0.00 0.00 0.00 0.00 0.00 0.00 0.00 0.00 0.00 0.00 0.00 0.00 0.00 0.00 0.00 0.00 0.00 0.00 0.00 0.00 0.00 0.00 0.00 0.00 0.00 0.00 0.00 0.00 0.01 0.06 0.01 0.01 0.05 0.09 0.14 0.05 0.65 0.53 0.61 0.77 0.46 0.36 0.51 0.54 0.27 0.53 0.96 0.25 0.48 0.32 0.46 0.19 0.13 0.09 0.20 0.72 0.14 0.18 0.15 0.26 0.20 0.38 0.16
0.00 0.00 0.00 0.00 0.00 0.00 0.00 0.00 0.00 0.00 0.00 0.00 0.00 0.00 0.05 0.21 0.10 0.09 0.03 0.00 0.02 0.00 0.00 0.00 0.01 0.00 0.00 0.00 0.00 0.00 0.00 0.00 0.00 0.00 0.00 0.00 0.00 0.00 0.00 0.00 0.00 0.00 0.01 0.00 0.00 0.00 0.00 0.00 0.00 0.00 0.00 0.00 0.00 0.00 0.03 0.01 0.02 0.05 0.04 0.09 0.09 0.23 0.22 0.13 0.35 0.27 0.40 0.21 0.08 0.46 0.61 0.74 0.53 0.19 0.09 0.19 0.22 0.30 0.30 0.23 0.17 0.25 0.15 0.15 0.14 0.14 0.22 0.16
0.00 0.00 0.00 0.00 0.00 0.00 0.00 0.00 0.00 0.00 0.00 0.00 0.00 0.01 0.03 0.09 0.09 0.01 0.00 0.00 0.00 0.00 0.00 0.01 0.00 0.00 0.00 0.00 0.00 0.00 0.00 0.00 0.00 0.00 0.00 0.00 0.00 0.00 0.00 0.00 0.00 0.00 0.00 0.00 0.00 0.00 0.00 0.00 0.00 0.00 0.00 0.00 0.00 0.00 0.00 0.01 0.00 0.01 0.01 0.03 0.13 0.14 0.28 0.36 0.37 0.41 0.59 0.70 0.24 0.43 0.31 0.55 0.21 1.27 0.81 0.76 0.40 0.22 0.18 0.32 0.59 0.65 0.55 0.53 0.57 0.35 0.15 0.17
0.00 0.00 0.00 0.00 0.00 0.00 0.00 0.00 0.00 0.00 0.00 0.00 0.00 0.11 0.12 0.05 0.02 0.05 0.03 0.00 0.00 0.00 0.00 0.00 0.01 0.00 0.00 0.00 0.00 0.00 0.00 0.00 0.00 0.00 0.00 0.00 0.00 0.00 0.00 0.00 0.00 0.00 0.00 0.00 0.00 0.00 0.00 0.01 0.00 0.00 0.00 0.00 0.00 0.00 0.00 0.00 0.05 0.22 0.06 0.00 0.01 0.07 0.02 0.14 0.26 0.26 0.23 0.54 0.35 0.29 0.42 0.73 0.74 0.48 0.52 0.76 0.61 0.50 0.57 0.36 0.45 0.43 0.38 0.28 0.32 0.71 0.51 0.29
0.00 0.00 0.00 0.00 0.00 0.00 0.00 0.00 0.00 0.00 0.00 0.00 0.06 0.06 0.05 0.01 0.03 0.00 0.00 0.00 0.00 0.02 0.00 0.00 0.01 0.00 0.00 0.01 0.00 0.01 0.00 0.01 0.00 0.00 0.00 0.00 0.00 0.01 0.00 0.00 0.00 0.00 0.00 0.00 0.02 0.01 0.00 0.00 0.00 0.00 0.00 0.00 0.00 0.00 0.00 0.00 0.06 0.02 0.10 0.18 0.01 0.01 0.00 0.11 0.10 0.08 0.05 0.10 0.63 0.13 0.23 0.22 0.27 0.22 0.37 0.90 1.20 0.67 0.39 0.67 0.33 0.20 0.27 0.22 0.22 0.19 0.28 0.47
0.00 0.00 0.00 0.00 0.00 0.00 0.00 0.00 0.00 0.00 0.00 0.00 0.11 0.13 0.05 0.00 0.00 0.00 0.00 0.00 0.00 0.00 0.00 0.00 0.03 0.03 0.01 0.01 0.00 0.00 0.00 0.00 0.00 0.00 0.02 0.00 0.00 0.00 0.00 0.00 0.00 0.00 0.00 0.00 0.00 0.00 0.00 0.01 0.00 0.00 0.00 0.00 0.00 0.00 0.00 0.00 0.00 0.04 0.02 0.03 0.01 0.00 0.00 0.02 0.27 0.18 0.05 0.34 0.90 0.38 0.45 0.40 0.17 1.04 0.22 0.73 0.65 0.47 0.55 0.49 0.12 0.06 0.20 0.18 0.16 0.18 0.37 0.64
0.00 0.00 0.00 0.00 0.00 0.00 0.00 0.00 0.00 0.00 0.00 0.08 0.07 0.02 0.00 0.02 0.00 0.00 0.00 0.00 0.00 0.00 0.01 0.01 0.00 0.00 0.00 0.00 0.02 0.00 0.00 0.00 0.02 0.00 0.01 0.00 0.01 0.00 0.00 0.00 0.00 0.00 0.00 0.00 0.00 0.00 0.00 0.02 0.00 0.00 0.00 0.00 0.00 0.00 0.00 0.00 0.00 0.00 0.03 0.03 0.01 0.10 0.05 0.01 0.13 0.18 0.15 0.18 0.48 0.27 0.40 0.48 0.46 0.75 0.27 0.48 0.42 0.43 0.54 1.00 0.68 0.15 0.13 0.21 0.12 0.25 0.43 0.66
0.00 0.00 0.00 0.00 0.00 0.00 0.00 0.00 0.00 0.00 0.03 0.14 0.15 0.03 0.03 0.02 0.00 0.00 0.00 0.00 0.00 0.00 0.02 0.00 0.00 0.00 0.00 0.00 0.00 0.00 0.01 0.01 0.00 0.00 0.01 0.00 0.01 0.00 0.00 0.00 0.00 0.00 0.00 0.00 0.00 0.00 0.00 0.01 0.01 0.00 0.00 0.00 0.00 0.00 0.10 0.01 0.00 0.00 0.00 0.00 0.00 0.00 0.02 0.02 0.13 0.10 0.06 0.63 0.23 0.77 0.22 0.67 0.35 0.44 0.16 0.24 0.43 0.40 0.53 0.37 1.06 0.67 0.13 0.14 0.19 0.16 0.46 0.71
0.00 0.00 0.00 0.00 0.00 0.00 0.00 0.00 0.00 0.03 0.16 0.20 0.06 0.04 0.01 0.00 0.00 0.00 0.00 0.00 0.00 0.00 0.03 0.01 0.00 0.00 0.00 0.00 0.00 0.00 0.01 0.01 0.01 0.01 0.01 0.01 0.00 0.00 0.00 0.00 0.00 0.00 0.00 0.00 0.00 0.00 0.00 0.00 0.06 0.01 0.00 0.00 0.02 0.00 0.09 0.06 0.03 0.00 0.00 0.01 0.00 0.00 0.01 0.01 0.00 0.06 0.08 0.26 0.23 0.28 0.23 0.51 0.66 0.82 0.53 0.65 0.64 0.59 0.68 0.52 0.57 0.71 0.33 0.20 0.22 0.19 0.30 0.39
0.00 0.00 0.00 0.00 0.00 0.00 0.00 0.01 0.03 0.14 0.11 0.12 0.01 0.03 0.00 0.00 0.00 0.00 0.00 0.00 0.00 0.00 0.00 0.04 0.00 0.01 0.00 0.00 0.00 0.00 0.01 0.02 0.01 0.02 0.01 0.02 0.00 0.00 0.00 0.00 0.00 0.00 0.00 0.00 0.00 0.00 0.01 0.00 0.01 0.04 0.00 0.00 0.00 0.00 0.01 0.00 0.01 0.04 0.01 0.04 0.00 0.01 0.04 0.01 0.10 0.00 0.01 0.04 0.14 0.12 0.36 0.35 0.55 0.54 1.42 1.03 0.91 1.04 0.86 0.50 0.23 0.50 0.43 0.25 0.18 0.24 0.72 1.03
0.00 0.02 0.00 0.00 0.00 0.00 0.00 0.04 0.04 0.02 0.06 0.12 0.08 0.01 0.01 0.00 0.00 0.01 0.00 0.00 0.01 0.01 0.00 0.00 0.00 0.03 0.00 0.00 0.00 0.00 0.01 0.02 0.03 0.03 0.02 0.02 0.01 0.00 0.00 0.00 0.00 0.00 0.00 0.00 0.00 0.00 0.00 0.00 0.00 0.10 0.04 0.11 0.00 0.00 0.00 0.00 0.00 0.01 0.01 0.05 0.01 0.00 0.00 0.00 0.01 0.09 0.00 0.04 0.02 0.14 0.16 0.76 0.24 0.23 0.42 0.55 1.41 1.48 1.12 0.51 0.71 1.03 0.47 0.38 0.39 0.21 0.45 0.47
0.00 0.00 0.00 0.00 0.00 0.00 0.00 0.05 0.01 0.03 0.05 0.05 0.00 0.04 0.02 0.01 0.03 0.06 0.03 0.02 0.12 0.07 0.03 0.02 0.01 0.04 0.00 0.00 0.00 0.00 0.00 0.01 0.03 0.06 0.04 0.03 0.02 0.00 0.00 0.00 0.00 0.00 0.00 0.00 0.00 0.00 0.00 0.01 0.01 0.01 0.02 0.03 0.00 0.00 0.00 0.00 0.00 0.01 0.00 0.03 0.01 0.02 0.01 0.01 0.01 0.01 0.01 0.02 0.03 0.16 0.13 0.64 0.35 0.22 0.51 0.69 0.58 1.12 1.21 1.08 1.23 0.99 0.77 0.72 0.66 0.98 0.72 0.52
0.00 0.00 0.00 0.00 0.00 0.00 0.03 0.08 0.03 0.02 0.02 0.01 0.02 0.02 0.01 0.04 0.01 0.06 0.09 0.07 0.05 0.03 0.06 0.03 0.07 0.07 0.04 0.00 0.00 0.01 0.00 0.05 0.05 0.03 0.05 0.05 0.04 0.01 0.00 0.00 0.00 0.00 0.00 0.00 0.00 0.01 0.03 0.04 0.03 0.14 0.09 0.02 0.00 0.00 0.01 0.00 0.00 0.00 0.05 0.03 0.05 0.03 0.01 0.01 0.00 0.00 0.01 0.01 0.16 0.09 0.14 0.50 0.64 0.10 0.52 1.18 0.61 1.23 1.16 1.37 1.58 0.92 0.56 0.69 1.12 1.84 1.97 1.05
0.02 0.01 0.00 0.00 0.00 0.00 0.13 0.01 0.03 0.05 0.02 0.04 0.03 0.02 0.04 0.04 0.05 0.02 0.02 0.06 0.05 0.07 0.06 0.08 0.09 0.05 0.05 0.01 0.00 0.00 0.00 0.02 0.05 0.03 0.04 0.05 0.04 0.03 0.01 0.01 0.00 0.00 0.00 0.00 0.00 0.00 0.01 0.01 0.08 0.16 0.12 0.22 0.17 0.25 0.31 0.16 0.14 0.02 0.11 0.06 0.04 0.01 0.05 0.06 0.01 0.02 0.01 0.03 0.04 0.04 0.54 0.40 0.24 0.27 0.58 0.44 0.42 1.13 1.63 0.86 0.93 0.79 0.76 0.98 0.90 0.93 0.90 1.17
0.00 0.09 0.00 0.00 0.00 0.03 0.03 0.00 0.03 0.02 0.05 0.02 0.02 0.04 0.02 0.07 0.07 0.06 0.03 0.03 0.03 0.05 0.01 0.08 0.02 0.03 0.06 0.03 0.05 0.02 0.02 0.04 0.07 0.12 0.10 0.11 0.07 0.06 0.04 0.02 0.01 0.00 0.00 0.00 0.00 0.00 0.00 0.01 0.00 0.03 0.06 0.15 0.35 0.36 0.06 0.00 0.10 0.12 0.12 0.04 0.12 0.02 0.01 0.00 0.02 0.06 0.01 0.06 0.13 0.21 0.13 0.26 0.21 0.45 0.79 0.67 1.25 0.74 0.96 0.99 0.93 0.86 0.72 0.86 0.76 1.05 1.04 0.94
0.16 0.07 0.00 0.06 0.01 0.05 0.02 0.04 0.04 0.06 0.09 0.07 0.05 0.02 0.03 0.04 0.01 0.05 0.05 0.07 0.10 0.08 0.06 0.05 0.10 0.03 0.13 0.08 0.15 0.06 0.04 0.06 0.06 0.08 0.11 0.09 0.09 0.06 0.06 0.04 0.02 0.01 0.01 0.00 0.01 0.00 0.00 0.03 0.08 0.03 0.02 0.04 0.04 0.00 0.05 0.02 0.02 0.05 0.07 0.08 0.05 0.05 0.01 0.05 0.04 0.07 0.11 0.01 0.06 0.25 0.23 0.19 0.35 0.33 0.31 0.32 0.53 0.45 0.59 0.69 0.86 1.05 1.19 0.67 1.12 0.97 0.92 1.53
0.19 0.08 0.05 0.40 0.16 0.09 0.03 0.05 0.08 0.15 0.10 0.09 0.06 0.15 0.08 0.05 0.02 0.05 0.02 0.05 0.07 0.13 0.09 0.19 0.20 0.14 0.15 0.15 0.05 0.15 0.10 0.08 0.08 0.15 0.12 0.15 0.08 0.12 0.09 0.08 0.04 0.05 0.02 0.01 0.01 0.01 0.01 0.06 0.20 0.05 0.02 0.03 0.05 0.05 0.03 0.02 0.03 0.02 0.06 0.05 0.12 0.02 0.09 0.07 0.00 0.03 0.04 0.05 0.10 0.31 0.28 0.33 0.28 0.41 0.23 0.22 0.29 0.33 0.65 0.94 1.19 0.83 1.00 1.11 1.15 1.51 1.15 1.00
0.07 0.08 0.03 0.10 0.28 0.17 0.14 0.07 0.02 0.08 0.06 0.05 0.06 0.12 0.12 0.05 0.04 0.04 0.02 0.04 0.07 0.15 0.12 0.28 0.18 0.13 0.11 0.10 0.10 0.19 0.14 0.15 0.18 0.12 0.18 0.15 0.11 0.13 0.13 0.14 0.07 0.05 0.04 0.05 0.02 0.05 0.01 0.01 0.07 0.10 0.06 0.08 0.04 0.03 0.00 0.18 0.02 0.01 0.05 0.07 0.17 0.11 0.11 0.13 0.04 0.02 0.01 0.07 0.17 0.08 0.46 0.44 0.51 0.59 0.65 0.30 0.31 0.22 0.29 0.51 0.56 0.88 0.78 0.84 0.93 0.91 1.24 1.74
0.28 0.31 0.78 0.10 0.24 0.17 0.06 0.06 0.05 0.04 0.08 0.12 0.11 0.09 0.10 0.09 0.06 0.03 0.06 0.05 0.16 0.12 0.10 0.12 0.15 0.12 0.12 0.10 0.11 0.20 0.09 0.08 0.19 0.22 0.08 0.09 0.09 0.09 0.17 0.14 0.20 0.15 0.07 0.06 0.03 0.09 0.00 0.09 0.00 0.08 0.18 0.12 0.08 0.06 0.06 0.04 0.04 0.14 0.02 0.01 0.00 0.08 0.01 0.01 0.04 0.03 0.04 0.06 0.18 0.41 0.34 0.43 0.65 0.61 0.72 0.46 0.36 0.50 0.24 0.34 0.58 0.65 0.81 0.89 1.03 1.04 1.63 1.49
0.24 0.46 0.85 0.84 0.47 0.22 0.26 0.15 0.12 0.13 0.11 0.12 0.12 0.19 0.08 0.13 0.17 0.11 0.18 0.04 0.12 0.38 0.20 0.15 0.10 0.11 0.10 0.13 0.14 0.13 0.10 0.04 0.02 0.03 0.04 0.04 0.15 0.13 0.20 0.25 0.15 0.15 0.13 0.11 0.05 0.07 0.00 0.07 0.00 0.03 0.10 0.13 0.03 0.08 0.11 0.04 0.07 0.17 0.05 0.03 0.04 0.07 0.14 0.07 0.11 0.04 0.14 0.18 0.24 0.27 0.47 0.51 0.52 0.91 0.71 0.80 0.43 0.29 0.27 0.30 0.60 0.58 0.77 1.08 0.77 1.39 1.16 0.94
0.74 0.47 0.68 1.23 0.74 0.28 0.19 0.05 0.12 0.30 0.15 0.12 0.27 0.18 0.14 0.23 0.13 0.12 0.16 0.19 0.14 0.32 0.23 0.12 0.12 0.09 0.06 0.08 0.12 0.09 0.06 0.02 0.01 0.00 0.01 0.01 0.02 0.02 0.04 0.07 0.08 0.11 0.17 0.17 0.05 0.09 0.03 0.06 0.09 0.05 0.18 0.04 0.19 0.07 0.06 0.03 0.06 0.11 0.10 0.17 0.15 0.11 0.11 0.09 0.03 0.04 0.17 0.10 0.26 0.24 0.67 0.38 0.60 0.57 0.60 0.65 0.50 0.60 0.35 0.52 0.32 0.54 0.84 1.22 1.24 0.78 0.51 0.43